SCP
0 0 0 0 0 -0 -0 -0 -0 -0 -0 -0 -0 -0 -0 -0 -0 -0 0 0 -0 0 0 0 0 0 0 0 0 0 0 0 0 0 0 0 0 0 0 0 0 0 0 0 0 0 0 0 0 0 0 0 0 0
-0 0 0 -0 0 0 -0 -0 -0 -0 -0 -0 -0 -0 0 0 0 -0 -0 0 0 0 0 0 0 0 0 0 0 0 0 0 0 0 0 0 0 0 0 0 0 0 0 0 0 0 0 0 0 0 0 0 0 0
-0 -0 -0 -0 0 0 0 0 -0 -0 -0 0 0 -0 0 0 -0 0 0 0 0 0 0 0 0 0 0 0 0 0 0 0 0 0 0 0 0 0 0 0 0 0 0 0 0 0 0 0 0 0 0 0 0 0
-0 -0 -0 -0 -0 0 0 0 0 -0 -0 -0 0 0 0 -0 -0 0 0 0 0 0 0 0 0 0 0 0 0 0 0 0 0 0 0 0 0 0 0 0 0 0 0 0 0 0 0 0 0 0 0 0 0 0
-0 -0 -0 -0 -0 -0 0 0 0 0 -0 -0 -0 0 -0 -0 0 0 0 0 0 0 0 0 0 0 0 0 0 0 0 0 0 0 0 0 0 0 0 0 0 0 0 0 0 0 0 0 0 0 0 0 0 0
-0 -0 -0 -0 -0 -0 -0 -0 0 0 -0 -0 0 0 -0 0 0 0 0 0 0 0 0 0 0 0 0 0 0 0 0 0 0 0 0 0 0 0 0 0 0 0 0 0 0 0 0 0 0 0 0 0 0 0
0 -0 -0 -0 -0 -0 -0 -0 0 -0 -0 0 0 -0 0 0 0 0 0 0 0 0 0 0 0 0 0 0 0 0 0 0 0 0 0 0 0 0 0 0 0 0 0 0 0 0 0 0 0 0 0 0 0 0
0 0 -0 -0 -0 -0 -0 -0 -0 -0 -0 -0 -0 0 0 0 0 0 0 0 0 0 0 0 0 0 0 0 0 0 0 0 0 0 0 0 0 0 0 -0 0 0 0 0 0 0 0 0 0 -0 -0 -0 0 0
0 0 0 -0 -0 -0 -0 -0 -0 0 0 -0 0 0 0 0 0 0 0 0 0 0 0 0 0 0 0 0 0 0 0 0 0 0 0 0 0 0 0 0 0 0 0 0 0 0 0 0 0 0 0 -0 -0 -0
0 0 0 0 -0 -0 -0 -0 -0 -0 -0 -0 0 0 0 0 0 0 0 0 0 0 0 0 0 0 0 0 0 0 0 0 0 0 0 0 0 0 0 0 0 0 0 0 0 0 0 0 0 0 0 0 -0 -0
0 0 0 0 0 -0 -0 -0 0 -0 0 0 0 0 0 0 0 0 0 0 0 0 0 0 0 0 0 0 0 0 0 0 0 0 0 0 0 0 0 0 0 0 0 0 0 0 0 0 0 0 0 0 0 -0
0 0 0 0 0 0 0 0 0 0 0 0 0 0 0 0 0 0 0 0 0 0 0 0 0 0 0 0 0 0 0 0 0 0 0 0 0 0 0 0 0 0 0 0 0 0 0 0 0 0 0 0 0 0
0 0 0 0 0 0 0 0 0 0 0 0 0 0 0 0 0 0 0 0 0 0 0 0 0 0 0 0 0 0 0 0 0 0 0 0 0 0 0 0 0 0 0 0 0 0 0 0 0 0 0 0 0 0
0 0 0 0 0 0 0 0 0 0 0 0 0 0 0 0 0 0 0 0 0 0 0 0 0 0 0 0 0 0 0 0 0 0 0 0 0 0 0 0 0 0 0 0 0 0 0 0 0 0 0 0 0 0
0 0 0 0 0 0 0 0 0 0 0 0 0 0 0 0 0 0 0 0 0 0 0 0 0 0 0 0 0 0 0 0 0 0 0 0 0 0 0 0 0 0 0 0 0 0 0 0 0 0 0 0 0 0
0 0 0 0 0 0 0 0 0 0 0 0 0 0 0 0 0 0 0 0 0 0 0 0 0 0 0 0 0 0 0 0 0 0 0 0 0 0 0 0 0 0 0 0 0 0 0 0 0 0 0 0 0 0
0 0 0 0 0 0 0 0 0 0 0 0 0 0 0 0 0 0 0 0 0 0 0 0 0 0 0 0 0 0 0 0 0 0 0 0 0 0 0 0 0 0 0 0 0 0 0 0 0 0 0 0 0 0
0 0 0 0 0 0 0 0 0 0 0 0 0 0 0 0 0 0 0 0 0 0 0 0 0 0 0 0 0 0 0 0 0 0 0 0 0 0 0 0 0 0 0 0 0 0 0 0 0 0 0 0 -0 -0
0 0 0 0 0 0 0 0 0 0 0 0 0 0 0 0 0 0 0 0 0 0 0 0 0 0 0 0 0 0 0 0 0 0 0 0 0 0 0 0 0 0 0 -0 -0 0 0 0 0 0 -0 -0 0 0
0 0 0 0 0 0 0 0 0 0 0 0 0 0 0 0 0 0 0 0 0 0 0 0 0 0 0 0 0 0 0 0 0 0 0 0 0 0 0 0 0 0 0 0 0 0 0 -0 0 -0 -0 -0 -0 -0
0 0 0 0 0 0 0 0 0 0 0 0 0 0 0 0 0 0 0 0 0 0 0 0 0 0 0 0 0 0 0 0 0 0 0 0 0 0 0 0 0 0 0 -0 -0 0 -0 -0 0 -0 -0 -0 -0 -0
0 0 0 0 0 0 0 0 0 0 0 0 0 0 0 0 0 0 0 0 0 0 0 0 0 0 0 0 0 0 0 0 0 0 0 0 0 0 0 0 0 0 -0 -0 -0 -0 -0 -0 -0 -0 -0 -0 -0 -0
0 0 0 0 0 0 0 0 0 0 0 0 0 0 0 0 0 0 0 0 0 0 0 0 0 0 0 0 0 0 0 0 0 0 0 0 0 0 0 0 0 0 0 0 -0 -0 -0 -0 0 -0 -0 -0 0 0
0 0 0 0 0 0 0 0 0 0 0 0 0 0 0 0 0 0 0 0 0 0 0 0 0 0 0 0 0 0 0 0 0 0 0 0 -0 0 0 0 0 0 0 0 0 -0 0 -0 -0 -0 -0 0 0 0
0 0 0 0 0 0 0 0 0 0 0 0 0 0 0 0 0 0 0 0 0 0 0 0 0 0 0 0 0 0 0 0 0 0 0 0 0 0 0 0 0 0 0 -0 0 0 0 -0 0 0 0 0 0 0
0 0 0 0 0 0 0 0 -0 0 0 0 0 0 0 0 0 0 0 0 0 0 0 0 0 0 0 0 0 0 0 0 0 0 0 0 0 0 0 0 0 0 0 0 0 -0 0 0 0 0 0 0 0 0
0 0 0 0 0 0 -0 -0 -0 0 0 0 0 0 0 0 0 0 0 0 0 0 0 0 0 0 0 0 0 0 0 0 0 0 0 0 0 0 0 0 0 0 0 0 0 0 0 0 0 0 0 0 0 0
0 0 0 0 0 0 -0 -0 0 0 0 0 0 0 -0 0 0 0 0 0 0 0 0 0 0 0 0 0 0 0 0 0 0 0 0 0 0 0 0 0 0 0 0 0 0 0 0 0 0 0 0 0 0 0
0 0 0 0 -0 -0 -0 0 0 -0 0 0 0 0 0 0 0 0 -0 0 0 0 0 0 0 0 0 0 0 0 0 0 0 0 0 0 0 0 0 0 0 0 0 0 0 0 0 0 0 0 0 0 0 0
0 0 0 -0 -0 0 0 -0 -0 -0 -0 -0 0 0 -0 -0 -0 0 0 0 0 0 0 0 0 0 0 0 0 0 0 0 0 0 0 0 0 0 0 0 0 0 0 0 0 0 0 0 0 0 0 0 0 0
0 0 0 0 -0 0 -0 -0 -0 -0 -0 -0 -0 -0 -0 0 -0 0 0 0 0 0 0 0 0 0 0 0 0 0 0 0 0 0 0 0 0 0 0 0 0 0 0 0 0 0 0 0 0 0 0 0 0 0
0 -0 0 0 -0 0 -0 -0 -0 0 0 0 0 0 0 0 0 0 0 0 0 0 0 0 0 0 0 0 0 0 0 0 0 0 0 0 0 0 0 0 0 0 0 0 0 0 0 0 0 0 0 0 0 0
0 0 0 0 0 0 0 -0 0 0 0 0 0 0 0 0 0 0 0 0 0 0 0 0 0 0 0 0 0 0 0 0 0 0 0 0 0 0 0 0 0 0 0 0 0 0 0 0 0 0 0 0 0 0
Wind_Speed_500mb
52 50 48 50 51 52 53 54 54 55 56 58 60 61 60 59 58 49 44 46 23 4 4 7 5 5 6 5 5 12 5 6 7 7 5 3 5 5 8 5 6 11 12 15 6 12 21 23 4 8 9 14 23 31
54 53 52 51 51 51 52 52 53 54 54 55 56 57 57 55 51 46 42 46 22 7 2 5 8 8 1 6 5 6 5 4 4 3 1 4 4 5 6 7 2 7 7 6 6 4 10 20 27 16 13 14 23 32
51 55 56 55 54 53 52 53 53 54 55 55 57 59 56 50 43 36 33 37 23 8 10 12 9 12 12 8 14 8 5 2 3 4 1 1 6 3 6 4 9 1 12 5 4 12 11 15 20 24 20 26 28 33
47 52 56 58 58 57 56 55 54 54 54 54 56 58 58 50 38 26 20 23 35 5 1 7 11 12 11 17 8 25 26 16 12 10 5 5 6 8 5 6 8 11 16 7 7 3 10 24 24 30 28 26 30 33
46 49 53 57 59 61 62 60 57 56 56 56 57 58 57 48 31 19 9 9 25 19 7 11 13 2 13 7 11 10 9 20 12 9 8 9 8 7 7 5 18 24 19 14 8 2 7 14 25 28 27 33 32 36
45 49 51 56 59 63 65 66 63 60 60 60 62 60 55 34 21 13 3 6 20 29 8 4 5 2 15 8 14 9 15 13 11 8 9 11 25 12 11 11 20 28 25 26 15 8 16 26 26 21 31 35 36 36
46 50 52 54 59 65 68 68 68 63 63 67 67 62 43 17 6 1 1 13 26 24 2 7 6 3 14 11 11 7 14 8 11 9 9 15 17 19 17 29 66 40 34 35 32 26 25 27 26 30 39 42 42 39
45 51 51 53 59 66 68 69 69 64 67 69 65 51 15 4 1 3 8 17 21 5 2 3 4 5 9 6 7 8 7 8 9 8 7 8 6 11 15 44 48 57 57 53 47 48 40 29 32 32 37 41 48 44
47 50 47 56 58 64 67 70 70 68 73 71 57 27 5 4 3 11 31 25 10 4 3 4 4 3 8 5 7 7 5 6 5 7 8 6 8 14 33 38 42 47 38 36 34 33 28 27 31 32 40 38 41 47
50 53 55 58 64 63 68 71 71 70 76 65 32 10 4 6 25 15 7 0 2 4 5 5 3 3 6 6 4 7 4 5 6 6 4 9 15 57 49 49 43 39 40 28 25 28 27 30 29 35 38 39 43 48
49 50 53 57 63 65 66 67 69 70 73 55 31 10 19 26 7 2 1 2 2 4 6 5 9 7 6 6 6 4 6 4 7 4 7 8 11 21 37 52 56 49 54 37 39 31 28 21 18 21 30 34 39 32
49 57 54 57 63 65 60 59 61 63 58 60 41 34 16 5 2 2 1 3 6 2 5 4 3 9 7 7 7 7 7 4 14 1 7 10 15 24 27 33 33 31 33 37 36 31 29 28 27 27 29 31 32 26
49 55 57 56 61 59 53 53 51 56 64 39 9 7 8 3 2 4 3 4 3 2 3 8 9 6 5 7 9 6 10 13 4 8 9 10 13 17 23 25 25 28 30 31 32 34 34 29 27 25 26 27 27 23
50 59 59 53 54 51 49 47 49 54 40 11 8 11 5 5 6 5 3 4 5 9 21 15 9 9 7 8 10 9 9 5 10 11 14 9 25 25 26 29 26 34 35 34 32 29 26 23 21 22 18 18 23 24
57 58 55 48 47 49 45 47 48 47 11 9 4 8 7 8 9 9 13 17 17 24 16 15 13 9 8 9 8 7 9 14 15 11 6 11 16 27 26 32 30 35 43 44 37 33 29 24 20 20 23 14 6 3
56 53 46 42 47 48 44 50 49 30 6 7 10 9 13 12 10 7 17 23 19 8 14 9 9 6 11 8 9 19 11 18 11 6 17 29 35 41 49 44 48 45 47 48 42 40 31 23 20 18 14 28 25 7
45 39 42 48 50 45 50 45 14 6 7 8 12 18 25 31 30 26 22 27 25 12 6 7 9 18 2 9 10 12 22 32 54 71 75 75 81 83 75 66 68 60 50 62 51 51 41 28 19 12 9 10 23 26
45 38 45 47 44 45 33 11 6 8 12 15 15 14 18 31 35 37 28 31 15 9 8 10 12 9 12 13 22 34 66 75 76 81 83 87 88 89 84 85 80 78 69 65 70 61 47 37 25 12 10 15 12 17
40 37 34 30 31 28 10 5 6 10 13 15 23 32 33 40 53 49 41 37 35 25 10 10 13 10 12 29 46 84 89 76 75 94 91 93 88 90 88 88 88 86 74 81 70 69 59 48 22 14 13 17 12 15
28 24 24 19 20 11 9 7 8 11 10 12 33 29 27 35 45 46 38 28 17 9 12 8 13 48 65 89 102 98 96 82 87 78 69 67 62 60 63 71 86 88 79 74 52 49 44 43 24 31 20 18 8 22
16 15 17 19 18 9 11 7 9 10 19 16 27 28 26 29 31 21 13 6 13 13 14 41 60 82 93 93 99 60 55 49 53 50 59 52 47 47 40 47 77 83 76 81 68 51 62 40 32 39 29 25 23 33
11 13 15 14 6 6 9 10 11 23 15 21 24 12 18 16 11 8 15 11 11 16 24 57 78 92 92 80 70 58 55 54 22 40 38 40 41 37 26 38 68 81 75 71 72 67 65 49 37 37 35 23 22 36
10 11 7 4 4 6 9 10 7 8 10 9 16 11 10 9 9 25 9 9 12 28 63 74 80 90 81 74 64 63 65 56 29 33 31 30 24 15 9 24 47 72 69 64 69 65 53 46 39 37 36 22 26 36
9 5 4 4 6 7 7 5 7 10 10 7 6 11 9 9 19 6 7 10 22 46 69 88 94 85 80 69 66 67 70 53 38 39 30 21 25 25 16 26 41 52 54 58 58 49 42 43 34 40 29 26 27 19
4 5 5 5 6 4 5 5 7 7 8 5 7 9 5 10 6 5 5 12 40 62 83 88 86 86 67 65 65 62 59 49 48 27 20 25 26 32 31 33 36 42 49 51 50 42 32 27 32 32 31 26 21 19
4 8 11 5 4 6 3 6 6 7 8 7 8 12 7 5 6 9 6 29 49 77 79 82 75 76 74 72 67 64 60 43 43 46 33 18 22 31 33 35 38 37 36 36 32 29 30 35 32 29 23 22 27 21
6 6 10 9 7 6 11 17 20 12 9 7 6 6 5 6 7 9 27 41 58 74 80 76 71 73 64 63 61 51 52 49 54 36 38 36 25 25 28 31 30 30 31 31 33 34 37 28 23 23 20 18 17 16
9 6 9 7 9 12 8 10 7 6 7 8 6 5 5 7 8 16 44 68 69 68 62 66 69 55 33 46 54 70 66 52 49 55 56 48 52 50 37 33 37 38 39 35 33 28 27 25 24 25 24 21 22 26
8 9 10 14 14 13 14 15 10 10 10 7 5 5 10 17 45 72 55 53 50 51 60 56 42 46 32 12 43 54 65 71 65 60 57 54 46 45 46 50 52 50 45 42 36 29 28 26 26 25 28 32 35 42
9 17 8 8 8 10 15 24 17 21 26 26 28 38 58 66 49 46 43 29 29 40 47 47 50 52 48 46 34 45 60 63 73 68 61 66 65 62 50 39 37 37 38 38 40 39 33 33 33 36 39 44 58 56
6 12 10 12 13 17 26 31 44 51 50 40 36 45 52 46 39 16 13 15 22 28 38 47 54 60 63 55 40 31 37 53 58 66 55 38 39 41 40 35 38 36 42 46 49 49 50 50 54 60 57 59 60 56
13 19 9 7 12 17 39 11 11 10 9 10 10 11 8 10 12 9 6 11 13 18 24 28 39 47 57 56 50 45 39 29 25 22 18 30 40 37 39 47 57 60 54 54 53 54 53 53 52 52 52 55 59 60
13 17 16 12 9 9 8 9 8 9 10 8 9 11 14 9 10 7 9 5 2 9 15 19 25 33 42 49 54 48 41 46 50 51 53 53 50 46 46 46 48 50 52 52 49 49 50 55 59 61 59 53 47 40
Wind_Direction_500mb
17 15 14 14 14 13 11 9 9 9 9 10 10 10 10 9 9 13 14 13 11 74 91 116 72 67 11 24 335 337 282 27 9 41 337 339 279 360 285 314 295 241 216 214 178 217 225 357 169 312 24 14 2 1
16 15 14 12 11 10 8 6 4 2 2 2 3 4 3 1 4 7 12 5 17 61 111 133 89 17 350 310 297 301 323 277 359 31 9 291 304 294 335 250 70 235 340 302 295 53 70 53 71 33 7 355 352 355
15 15 14 12 9 7 6 3 1 358 356 355 354 355 355 353 355 0 5 8 16 47 103 116 94 63 45 321 260 235 244 227 81 30 350 50 275 296 288 304 300 163 10 274 237 162 352 117 53 22 6 0 355 351
7 7 8 8 8 5 3 1 358 355 352 349 348 347 345 345 342 350 1 11 24 13 328 182 101 54 40 33 341 240 244 256 266 305 232 238 263 197 268 319 288 307 320 330 285 215 342 195 343 349 340 341 344 345
0 359 1 2 1 1 1 359 356 353 349 346 344 343 341 339 335 334 326 353 21 27 309 295 288 51 15 6 13 10 267 249 241 206 203 225 211 202 227 260 257 242 251 253 271 215 259 282 324 336 335 332 332 335
350 351 351 353 353 355 355 355 354 351 347 344 341 340 338 340 334 334 300 286 347 357 316 291 300 204 19 357 336 312 333 280 261 241 235 234 235 226 255 251 245 234 233 237 251 254 272 288 300 313 322 329 328 321
342 341 342 347 350 349 349 350 351 349 346 343 339 336 337 337 321 309 332 321 336 334 272 288 304 252 359 19 345 324 327 280 263 270 248 258 240 204 245 249 249 248 255 233 247 278 274 270 278 299 308 312 315 315
332 328 332 338 343 343 344 345 347 348 346 342 336 332 332 351 357 282 265 319 327 314 271 271 271 297 351 305 316 290 286 273 237 252 244 232 232 208 252 253 261 259 251 247 249 256 259 261 278 292 301 307 303 303
328 329 332 337 339 337 339 341 344 346 346 344 336 329 286 220 267 283 291 294 280 238 257 228 287 320 335 314 302 305 304 267 267 252 231 210 212 222 232 237 243 247 238 246 240 237 232 259 275 286 294 295 299 301
329 331 331 333 336 339 336 337 341 344 345 347 343 333 269 296 319 320 8 30 247 245 235 263 245 304 320 333 304 296 268 279 268 242 229 229 247 247 248 250 251 253 250 236 233 240 247 246 255 269 278 283 292 298
319 319 327 331 331 333 332 334 336 342 347 354 336 288 293 314 305 294 292 281 308 238 210 243 225 289 287 279 295 244 304 265 263 232 248 239 249 263 266 263 261 254 237 244 251 248 249 242 238 271 288 289 285 291
316 319 321 324 326 328 332 332 332 338 343 328 308 296 324 354 321 300 298 251 230 280 217 230 273 242 268 250 262 216 257 228 253 204 249 250 268 269 278 269 264 250 226 227 228 232 237 238 244 258 270 281 284 283
314 317 315 317 322 328 330 329 329 331 334 330 331 309 337 301 338 211 219 194 258 238 11 340 304 257 256 245 247 229 236 235 311 225 236 266 308 292 294 282 251 220 214 216 222 226 226 233 247 257 265 268 277 252
310 311 313 316 320 321 326 322 328 331 339 313 337 308 236 231 241 211 266 297 339 328 329 316 270 249 213 228 245 243 239 262 247 239 233 260 280 289 307 296 250 224 212 207 203 202 207 221 234 249 270 270 262 259
308 310 313 314 315 318 320 317 322 321 298 268 251 252 241 281 275 278 292 295 286 299 296 303 261 242 226 249 218 269 244 235 229 235 212 230 266 286 294 319 278 222 208 203 206 207 216 223 230 238 231 240 234 321
308 313 315 315 315 320 316 317 320 313 250 242 237 265 265 281 285 291 287 283 315 281 314 262 258 255 241 231 213 217 234 226 241 208 280 292 288 271 260 247 257 251 227 215 212 213 213 210 224 231 237 223 219 240
309 306 309 310 314 325 320 316 309 266 244 235 247 256 262 274 271 274 271 285 293 280 253 246 239 230 233 238 238 222 249 270 285 287 284 275 266 260 253 252 243 240 242 229 221 212 214 214 223 248 254 241 238 234
302 301 300 307 320 330 324 306 266 259 253 254 260 270 265 271 275 283 285 290 256 225 211 229 274 250 249 250 256 263 271 278 280 278 276 274 272 266 253 242 235 234 238 245 233 221 216 212 217 221 284 292 263 215
299 303 301 311 324 332 300 277 268 277 261 269 269 282 281 281 291 295 288 284 271 255 242 235 250 243 237 252 265 274 276 279 287 287 281 276 271 270 260 243 228 227 232 230 234 221 214 213 204 225 277 298 254 265
297 300 309 313 325 324 287 272 257 268 274 285 282 279 282 287 289 294 292 283 238 194 206 231 230 253 263 271 275 281 287 281 276 281 287 283 281 276 270 249 224 217 216 211 210 206 207 212 205 241 270 310 290 248
296 297 301 316 313 242 261 292 267 267 291 274 282 297 287 287 288 290 290 238 183 210 233 242 274 287 294 296 301 317 330 284 274 296 294 301 306 296 283 249 215 202 202 204 214 219 223 217 215 239 250 283 285 267
279 292 306 309 260 277 271 261 268 294 274 275 304 284 285 287 288 281 300 224 236 249 257 294 307 310 315 319 336 337 336 343 313 315 319 323 320 312 268 216 195 190 197 200 206 214 228 219 212 233 254 273 258 248
290 313 308 255 266 252 266 284 273 270 273 291 307 284 265 276 274 323 263 252 266 299 325 321 323 330 331 339 346 351 350 342 345 358 352 348 1 12 198 190 192 181 185 192 198 205 204 222 222 226 255 249 223 242
293 270 228 241 223 272 298 266 261 274 280 277 278 279 283 294 315 271 270 267 288 326 335 344 347 341 351 349 356 358 0 10 3 17 6 33 50 64 113 156 172 177 177 180 189 202 207 226 227 231 224 206 225 230
248 218 213 277 238 257 266 258 246 259 263 277 268 274 291 315 298 285 275 286 328 337 344 353 355 351 344 352 3 5 16 22 18 7 29 57 90 96 110 128 143 159 169 168 176 178 185 211 208 205 205 190 192 171
254 206 187 219 207 225 258 266 244 277 297 277 264 285 310 300 275 264 258 316 335 338 337 344 344 345 345 358 355 0 3 24 33 35 38 62 95 121 124 132 144 152 159 159 164 164 176 188 183 182 191 193 160 147
254 230 216 234 239 270 273 263 262 257 254 263 279 295 326 291 271 263 296 328 329 331 340 347 354 356 349 1 19 36 32 33 50 47 53 63 84 103 117 129 131 141 145 142 142 162 171 169 174 179 179 166 157 129
243 262 219 201 221 228 255 270 253 236 245 246 273 262 249 225 259 283 312 319 328 335 349 5 9 7 21 39 44 32 38 50 59 59 64 71 73 78 94 120 131 139 146 150 159 167 161 168 166 159 151 148 142 129
236 231 222 243 236 231 229 225 248 235 229 230 245 261 263 255 282 299 317 324 342 347 349 3 8 13 39 34 30 42 46 46 49 55 59 62 70 80 88 93 102 107 109 111 115 126 136 142 147 148 144 134 130 153
241 216 232 237 230 230 233 213 238 254 262 262 267 277 284 289 303 312 316 328 335 341 347 356 4 19 35 46 75 66 55 58 52 53 72 82 87 76 70 80 92 103 112 118 127 133 139 138 137 142 151 150 146 145
230 211 232 236 258 253 263 285 284 281 277 271 266 259 266 290 319 336 329 335 349 5 359 5 28 30 33 37 52 88 96 93 84 64 65 68 42 49 73 77 80 104 116 119 122 126 131 135 139 143 140 138 139 141
207 214 220 245 269 284 311 280 277 272 261 258 262 228 250 256 274 293 336 343 355 6 0 6 27 34 36 42 47 58 69 72 66 78 85 93 113 96 91 98 93 95 97 103 111 117 122 125 129 132 134 135 136 137
237 240 240 269 276 277 283 280 265 272 251 255 253 232 239 239 261 280 313 333 7 16 11 8 19 38 41 45 48 63 64 72 73 74 75 81 91 99 101 103 105 104 105 106 107 110 113 120 125 129 131 134 135 137
Wind_Speed_850mb
52 50 48 50 51 52 53 54 54 55 56 58 60 61 60 59 58 49 44 46 23 4 4 7 5 5 6 5 5 12 5 6 7 7 5 3 5 5 8 5 6 11 12 15 6 12 21 23 4 8 9 14 23 31
54 53 52 51 51 51 52 52 53 54 54 55 56 57 57 55 51 46 42 46 22 7 2 5 8 8 1 6 5 6 5 4 4 3 1 4 4 5 6 7 2 7 7 6 6 4 10 20 27 16 13 14 23 32
51 55 56 55 54 53 52 53 53 54 55 55 57 59 56 50 43 36 33 37 23 8 10 12 9 12 12 8 14 8 5 2 3 4 1 1 6 3 6 4 9 1 12 5 4 12 11 15 20 24 20 26 28 33
47 52 56 58 58 57 56 55 54 54 54 54 56 58 58 50 38 26 20 23 35 5 1 7 11 12 11 17 8 25 26 16 12 10 5 5 6 8 5 6 8 11 16 7 7 3 10 24 24 30 28 26 30 33
46 49 53 57 59 61 62 60 57 56 56 56 57 58 57 48 31 19 9 9 25 19 7 11 13 2 13 7 11 10 9 20 12 9 8 9 8 7 7 5 18 24 19 14 8 2 7 14 25 28 27 33 32 36
45 49 51 56 59 63 65 66 63 60 60 60 62 60 55 34 21 13 3 6 20 29 8 4 5 2 15 8 14 9 15 13 11 8 9 11 25 12 11 11 20 28 25 26 15 8 16 26 26 21 31 35 36 36
46 50 52 54 59 65 68 68 68 63 63 67 67 62 43 17 6 1 1 13 26 24 2 7 6 3 14 11 11 7 14 8 11 9 9 15 17 19 17 29 66 40 34 35 32 26 25 27 26 30 39 42 42 39
45 51 51 53 59 66 68 69 69 64 67 69 65 51 15 4 1 3 8 17 21 5 2 3 4 5 9 6 7 8 7 8 9 8 7 8 6 11 15 44 48 57 57 53 47 48 40 29 32 32 37 41 48 44
47 50 47 56 58 64 67 70 70 68 73 71 57 27 5 4 3 11 31 25 10 4 3 4 4 3 8 5 7 7 5 6 5 7 8 6 8 14 33 38 42 47 38 36 34 33 28 27 31 32 40 38 41 47
50 53 55 58 64 63 68 71 71 70 76 65 32 10 4 6 25 15 7 0 2 4 5 5 3 3 6 6 4 7 4 5 6 6 4 9 15 57 49 49 43 39 40 28 25 28 27 30 29 35 38 39 43 48
49 50 53 57 63 65 66 67 69 70 73 55 31 10 19 26 7 2 1 2 2 4 6 5 9 7 6 6 6 4 6 4 7 4 7 8 11 21 37 52 56 49 54 37 39 31 28 21 18 21 30 34 39 32
49 57 54 57 63 65 60 59 61 63 58 60 41 34 16 5 2 2 1 3 6 2 5 4 3 9 7 7 7 7 7 4 14 1 7 10 15 24 27 33 33 31 33 37 36 31 29 28 27 27 29 31 32 26
49 55 57 56 61 59 53 53 51 56 64 39 9 7 8 3 2 4 3 4 3 2 3 8 9 6 5 7 9 6 10 13 4 8 9 10 13 17 23 25 25 28 30 31 32 34 34 29 27 25 26 27 27 23
50 59 59 53 54 51 49 47 49 54 40 11 8 11 5 5 6 5 3 4 5 9 21 15 9 9 7 8 10 9 9 5 10 11 14 9 25 25 26 29 26 34 35 34 32 29 26 23 21 22 18 18 23 24
57 58 55 48 47 49 45 47 48 47 11 9 4 8 7 8 9 9 13 17 17 24 16 15 13 9 8 9 8 7 9 14 15 11 6 11 16 27 26 32 30 35 43 44 37 33 29 24 20 20 23 14 6 3
56 53 46 42 47 48 44 50 49 30 6 7 10 9 13 12 10 7 17 23 19 8 14 9 9 6 11 8 9 19 11 18 11 6 17 29 35 41 49 44 48 45 47 48 42 40 31 23 20 18 14 28 25 7
45 39 42 48 50 45 50 45 14 6 7 8 12 18 25 31 30 26 22 27 25 12 6 7 9 18 2 9 10 12 22 32 54 71 75 75 81 83 75 66 68 60 50 62 51 51 41 28 19 12 9 10 23 26
45 38 45 47 44 45 33 11 6 8 12 15 15 14 18 31 35 37 28 31 15 9 8 10 12 9 12 13 22 34 66 75 76 81 83 87 88 89 84 85 80 78 69 65 70 61 47 37 25 12 10 15 12 17
40 37 34 30 31 28 10 5 6 10 13 15 23 32 33 40 53 49 41 37 35 25 10 10 13 10 12 29 46 84 89 76 75 94 91 93 88 90 88 88 88 86 74 81 70 69 59 48 22 14 13 17 12 15
28 24 24 19 20 11 9 7 8 11 10 12 33 29 27 35 45 46 38 28 17 9 12 8 13 48 65 89 102 98 96 82 87 78 69 67 62 60 63 71 86 88 79 74 52 49 44 43 24 31 20 18 8 22
16 15 17 19 18 9 11 7 9 10 19 16 27 28 26 29 31 21 13 6 13 13 14 41 60 82 93 93 99 60 55 49 53 50 59 52 47 47 40 47 77 83 76 81 68 51 62 40 32 39 29 25 23 33
11 13 15 14 6 6 9 10 11 23 15 21 24 12 18 16 11 8 15 11 11 16 24 57 78 92 92 80 70 58 55 54 22 40 38 40 41 37 26 38 68 81 75 71 72 67 65 49 37 37 35 23 22 36
10 11 7 4 4 6 9 10 7 8 10 9 16 11 10 9 9 25 9 9 12 28 63 74 80 90 81 74 64 63 65 56 29 33 31 30 24 15 9 24 47 72 69 64 69 65 53 46 39 37 36 22 26 36
9 5 4 4 6 7 7 5 7 10 10 7 6 11 9 9 19 6 7 10 22 46 69 88 94 85 80 69 66 67 70 53 38 39 30 21 25 25 16 26 41 52 54 58 58 49 42 43 34 40 29 26 27 19
4 5 5 5 6 4 5 5 7 7 8 5 7 9 5 10 6 5 5 12 40 62 83 88 86 86 67 65 65 62 59 49 48 27 20 25 26 32 31 33 36 42 49 51 50 42 32 27 32 32 31 26 21 19
4 8 11 5 4 6 3 6 6 7 8 7 8 12 7 5 6 9 6 29 49 77 79 82 75 76 74 72 67 64 60 43 43 46 33 18 22 31 33 35 38 37 36 36 32 29 30 35 32 29 23 22 27 21
6 6 10 9 7 6 11 17 20 12 9 7 6 6 5 6 7 9 27 41 58 74 80 76 71 73 64 63 61 51 52 49 54 36 38 36 25 25 28 31 30 30 31 31 33 34 37 28 23 23 20 18 17 16
9 6 9 7 9 12 8 10 7 6 7 8 6 5 5 7 8 16 44 68 69 68 62 66 69 55 33 46 54 70 66 52 49 55 56 48 52 50 37 33 37 38 39 35 33 28 27 25 24 25 24 21 22 26
8 9 10 14 14 13 14 15 10 10 10 7 5 5 10 17 45 72 55 53 50 51 60 56 42 46 32 12 43 54 65 71 65 60 57 54 46 45 46 50 52 50 45 42 36 29 28 26 26 25 28 32 35 42
9 17 8 8 8 10 15 24 17 21 26 26 28 38 58 66 49 46 43 29 29 40 47 47 50 52 48 46 34 45 60 63 73 68 61 66 65 62 50 39 37 37 38 38 40 39 33 33 33 36 39 44 58 56
6 12 10 12 13 17 26 31 44 51 50 40 36 45 52 46 39 16 13 15 22 28 38 47 54 60 63 55 40 31 37 53 58 66 55 38 39 41 40 35 38 36 42 46 49 49 50 50 54 60 57 59 60 56
13 19 9 7 12 17 39 11 11 10 9 10 10 11 8 10 12 9 6 11 13 18 24 28 39 47 57 56 50 45 39 29 25 22 18 30 40 37 39 47 57 60 54 54 53 54 53 53 52 52 52 55 59 60
13 17 16 12 9 9 8 9 8 9 10 8 9 11 14 9 10 7 9 5 2 9 15 19 25 33 42 49 54 48 41 46 50 51 53 53 50 46 46 46 48 50 52 52 49 49 50 55 59 61 59 53 47 40
Wind_Direction_850mb
17 15 14 14 14 13 11 9 9 9 9 10 10 10 10 9 9 13 14 13 11 74 91 116 72 67 11 24 335 337 282 27 9 41 337 339 279 360 285 314 295 241 216 214 178 217 225 357 169 312 24 14 2 1
16 15 14 12 11 10 8 6 4 2 2 2 3 4 3 1 4 7 12 5 17 61 111 133 89 17 350 310 297 301 323 277 359 31 9 291 304 294 335 250 70 235 340 302 295 53 70 53 71 33 7 355 352 355
15 15 14 12 9 7 6 3 1 358 356 355 354 355 355 353 355 0 5 8 16 47 103 116 94 63 45 321 260 235 244 227 81 30 350 50 275 296 288 304 300 163 10 274 237 162 352 117 53 22 6 0 355 351
7 7 8 8 8 5 3 1 358 355 352 349 348 347 345 345 342 350 1 11 24 13 328 182 101 54 40 33 341 240 244 256 266 305 232 238 263 197 268 319 288 307 320 330 285 215 342 195 343 349 340 341 344 345
0 359 1 2 1 1 1 359 356 353 349 346 344 343 341 339 335 334 326 353 21 27 309 295 288 51 15 6 13 10 267 249 241 206 203 225 211 202 227 260 257 242 251 253 271 215 259 282 324 336 335 332 332 335
350 351 351 353 353 355 355 355 354 351 347 344 341 340 338 340 334 334 300 286 347 357 316 291 300 204 19 357 336 312 333 280 261 241 235 234 235 226 255 251 245 234 233 237 251 254 272 288 300 313 322 329 328 321
342 341 342 347 350 349 349 350 351 349 346 343 339 336 337 337 321 309 332 321 336 334 272 288 304 252 359 19 345 324 327 280 263 270 248 258 240 204 245 249 249 248 255 233 247 278 274 270 278 299 308 312 315 315
332 328 332 338 343 343 344 345 347 348 346 342 336 332 332 351 357 282 265 319 327 314 271 271 271 297 351 305 316 290 286 273 237 252 244 232 232 208 252 253 261 259 251 247 249 256 259 261 278 292 301 307 303 303
328 329 332 337 339 337 339 341 344 346 346 344 336 329 286 220 267 283 291 294 280 238 257 228 287 320 335 314 302 305 304 267 267 252 231 210 212 222 232 237 243 247 238 246 240 237 232 259 275 286 294 295 299 301
329 331 331 333 336 339 336 337 341 344 345 347 343 333 269 296 319 320 8 30 247 245 235 263 245 304 320 333 304 296 268 279 268 242 229 229 247 247 248 250 251 253 250 236 233 240 247 246 255 269 278 283 292 298
319 319 327 331 331 333 332 334 336 342 347 354 336 288 293 314 305 294 292 281 308 238 210 243 225 289 287 279 295 244 304 265 263 232 248 239 249 263 266 263 261 254 237 244 251 248 249 242 238 271 288 289 285 291
316 319 321 324 326 328 332 332 332 338 343 328 308 296 324 354 321 300 298 251 230 280 217 230 273 242 268 250 262 216 257 228 253 204 249 250 268 269 278 269 264 250 226 227 228 232 237 238 244 258 270 281 284 283
314 317 315 317 322 328 330 329 329 331 334 330 331 309 337 301 338 211 219 194 258 238 11 340 304 257 256 245 247 229 236 235 311 225 236 266 308 292 294 282 251 220 214 216 222 226 226 233 247 257 265 268 277 252
310 311 313 316 320 321 326 322 328 331 339 313 337 308 236 231 241 211 266 297 339 328 329 316 270 249 213 228 245 243 239 262 247 239 233 260 280 289 307 296 250 224 212 207 203 202 207 221 234 249 270 270 262 259
308 310 313 314 315 318 320 317 322 321 298 268 251 252 241 281 275 278 292 295 286 299 296 303 261 242 226 249 218 269 244 235 229 235 212 230 266 286 294 319 278 222 208 203 206 207 216 223 230 238 231 240 234 321
308 313 315 315 315 320 316 317 320 313 250 242 237 265 265 281 285 291 287 283 315 281 314 262 258 255 241 231 213 217 234 226 241 208 280 292 288 271 260 247 257 251 227 215 212 213 213 210 224 231 237 223 219 240
309 306 309 310 314 325 320 316 309 266 244 235 247 256 262 274 271 274 271 285 293 280 253 246 239 230 233 238 238 222 249 270 285 287 284 275 266 260 253 252 243 240 242 229 221 212 214 214 223 248 254 241 238 234
302 301 300 307 320 330 324 306 266 259 253 254 260 270 265 271 275 283 285 290 256 225 211 229 274 250 249 250 256 263 271 278 280 278 276 274 272 266 253 242 235 234 238 245 233 221 216 212 217 221 284 292 263 215
299 303 301 311 324 332 300 277 268 277 261 269 269 282 281 281 291 295 288 284 271 255 242 235 250 243 237 252 265 274 276 279 287 287 281 276 271 270 260 243 228 227 232 230 234 221 214 213 204 225 277 298 254 265
297 300 309 313 325 324 287 272 257 268 274 285 282 279 282 287 289 294 292 283 238 194 206 231 230 253 263 271 275 281 287 281 276 281 287 283 281 276 270 249 224 217 216 211 210 206 207 212 205 241 270 310 290 248
296 297 301 316 313 242 261 292 267 267 291 274 282 297 287 287 288 290 290 238 183 210 233 242 274 287 294 296 301 317 330 284 274 296 294 301 306 296 283 249 215 202 202 204 214 219 223 217 215 239 250 283 285 267
279 292 306 309 260 277 271 261 268 294 274 275 304 284 285 287 288 281 300 224 236 249 257 294 307 310 315 319 336 337 336 343 313 315 319 323 320 312 268 216 195 190 197 200 206 214 228 219 212 233 254 273 258 248
290 313 308 255 266 252 266 284 273 270 273 291 307 284 265 276 274 323 263 252 266 299 325 321 323 330 331 339 346 351 350 342 345 358 352 348 1 12 198 190 192 181 185 192 198 205 204 222 222 226 255 249 223 242
293 270 228 241 223 272 298 266 261 274 280 277 278 279 283 294 315 271 270 267 288 326 335 344 347 341 351 349 356 358 0 10 3 17 6 33 50 64 113 156 172 177 177 180 189 202 207 226 227 231 224 206 225 230
248 218 213 277 238 257 266 258 246 259 263 277 268 274 291 315 298 285 275 286 328 337 344 353 355 351 344 352 3 5 16 22 18 7 29 57 90 96 110 128 143 159 169 168 176 178 185 211 208 205 205 190 192 171
254 206 187 219 207 225 258 266 244 277 297 277 264 285 310 300 275 264 258 316 335 338 337 344 344 345 345 358 355 0 3 24 33 35 38 62 95 121 124 132 144 152 159 159 164 164 176 188 183 182 191 193 160 147
254 230 216 234 239 270 273 263 262 257 254 263 279 295 326 291 271 263 296 328 329 331 340 347 354 356 349 1 19 36 32 33 50 47 53 63 84 103 117 129 131 141 145 142 142 162 171 169 174 179 179 166 157 129
243 262 219 201 221 228 255 270 253 236 245 246 273 262 249 225 259 283 312 319 328 335 349 5 9 7 21 39 44 32 38 50 59 59 64 71 73 78 94 120 131 139 146 150 159 167 161 168 166 159 151 148 142 129
236 231 222 243 236 231 229 225 248 235 229 230 245 261 263 255 282 299 317 324 342 347 349 3 8 13 39 34 30 42 46 46 49 55 59 62 70 80 88 93 102 107 109 111 115 126 136 142 147 148 144 134 130 153
241 216 232 237 230 230 233 213 238 254 262 262 267 277 284 289 303 312 316 328 335 341 347 356 4 19 35 46 75 66 55 58 52 53 72 82 87 76 70 80 92 103 112 118 127 133 139 138 137 142 151 150 146 145
230 211 232 236 258 253 263 285 284 281 277 271 266 259 266 290 319 336 329 335 349 5 359 5 28 30 33 37 52 88 96 93 84 64 65 68 42 49 73 77 80 104 116 119 122 126 131 135 139 143 140 138 139 141
207 214 220 245 269 284 311 280 277 272 261 258 262 228 250 256 274 293 336 343 355 6 0 6 27 34 36 42 47 58 69 72 66 78 85 93 113 96 91 98 93 95 97 103 111 117 122 125 129 132 134 135 136 137
237 240 240 269 276 277 283 280 265 272 251 255 253 232 239 239 261 280 313 333 7 16 11 8 19 38 41 45 48 63 64 72 73 74 75 81 91 99 101 103 105 104 105 106 107 110 113 120 125 129 131 134 135 137